Location: Round Knob
(37.2473°N, 88.7376°W)
Time: 19:51:28
(UTC+00:00)

X-37B - Pass Details

Date: 25 September 2021
Orbit: 385 x 389 km, 45.0° (Epoch: 17 October)

Event Time Altitude Azimuth Distance (km) Brightness Sun altitude
Exits shadow 09:50:06 27° 26° (NNE) 791 2.5 -23.5°
Drops below altitude 10° 09:51:56 10° 50° (NE) 1,414 4.3 -23.1°
Sets 09:54:06 0° 59° (ENE) 2,271 5.8 -22.7°
